Location: Lombard
(41.8800°N, 88.0080°W)
Time: 00:21:00
(UTC-05:00)

Tiros 1 - Pass Details

Date: 29 January 2023
Orbit: 628 x 662 km, 48.4° (Epoch: 20 March)

Event Time Altitude Azimuth Distance (km) Brightness Sun altitude
Rises 05:46:57 0° 292° (WNW) 2,938 - -15.2°
Reaches altitude 10° 05:49:23 10° 300° (WNW) 2,035 - -14.7°
Exits shadow 05:50:57 20° 309° (NW) 1,504 8.5 -14.4°
Maximum altitude 05:53:50 41° 11° (N) 939 7.9 -13.9°
Drops below altitude 10° 05:58:19 10° 82° (E) 2,054 10.9 -13.1°
Sets 06:00:47 0° 89° (E) 2,970 12.3 -12.6°
